CZ-6A DEB, 61157

Orbit data source: Space-Track

CZ-6A DEB, 61157 is space debris in LEO originally from a launch on Tue, 06 Aug 2024 UTC launched from the Taiyaun Space Center, China (TSC). Debris objects in space refer to the collection of defunct objects orbiting the Earth. Examples of debris include non-operational satellites, rocket bodies, and fragments generated from explosions, collisions, or faulty payload assembly.

Loading next visibility...
Identifier
61157, 2024-140RB
Orbit
LEO
Country
Flag of CNCN / PRC
Related business
Manufacturer
SAST
Mission
Spacecraft
Bus & Motor
Unknown
Mass
Unknown
Launch date (UTC)
2024-08-06 (2 years ago)
Launch vehicle
Unknown
Launch site
Taiyaun Space Center, China (TSC)
Object type
Payload
Rocket body
Debris
Shape & HBR
Unknown shape, 0.1 m
Radar Cross Section
Medium (>0.1 m² and <1 m²)

Expand to show TLE details & history
Last TLE update: 14 hours ago

TLE from 14 hours ago
0 CZ-6A DEB
1 61157U 24140RB  26171.26888653  .00000698  00000-0  24504-3 0  9995
2 61157  88.8508 260.7752 0095137  51.4777 309.4900 14.31365435 95390
Epoch: 2026-06-20T06:27Z
TLE epoch observation values (Epoch: 2026-06-20T06:27:11.796Z)
Latitude
-0.00002°
Longitude
-104.50989°
Altitude
747.268 km
Speed
7.503 km/s
True Right ascension
17h 23m 06s
True Declination
0° 00' 00"
Sunlit
Object was in full shadow at epoch
Visualization orbit readout
Latitude
Unknown
Longitude
Unknown
Altitude
Unknown
Speed
Unknown
Apparent Right ascension
Unknown
Apparent Declination
Unknown
Sunlit
N/A
Visualization observer readout
Local Sidereal Time
07:18:15
Azimuth
Unknown
Elevation
Unknown
Doppler factor
Unknown
Orbital elements
Apogee altitude
852.245 km
Perigee altitude
715.966 km
Semi-major axis
7,162.243 km
Eccentricity
0.00951
Inclination
88.8508°
RAAN
260.7752°
Arg. of periapsis
51.4777°
True anomaly
308.64228°
Mean anomaly
309.49°
Eccentric anomaly
309.06678°
Mean motion
3.58071 °/min
Orbital period
100.54 mins
BSTAR
0.00024504
Loading maneuver chart data...
Computing Atmospheric mass density...
Loading historical data...
Loading historical data...
Loading historical data...
Loading historical data...
Loading historical data...
Loading historical data...
Loading historical data...

Documentation

Showing up to 5 results
|